Window Rock, AZ

1:32 AM MDT on June 26, 2017 (GMT -0600)
Window Rock

Weather History for KRQE - October, 2013

Change the Weather History Date:

Sunday, October 20, 2013

  Actual Average Record
Temperature  
Mean Temperature 42 °F -  
Max Temperature 64 °F 63 °F 78 °F (1940)
Min Temperature 19 °F 31 °F 15 °F (1976)
Degree Days  
Heating Degree Days 24    
Moisture  
Dew Point 11 °F    
Average Humidity 36    
Maximum Humidity 74    
Minimum Humidity 10    
Precipitation  
Precipitation 0.00 in - - ()
Sea Level Pressure  
Sea Level Pressure 29.99 in    
Wind  
Wind Speed 2 mph (West)    
Max Wind Speed 15 mph    
Max Gust Speed 23 mph    
Visibility 10 miles    
Events      
Averages and records for this station are not official NWS values.
T = Trace of Precipitation, MM = Missing Value Source: NWS Daily Summary

Daily Weather History Graph

Daily Weather History Graph

Search for Another Location

Airport or City:

Trip Planner

Search our weather history database for the weather conditions in past years. The results will help you decide how hot, cold, wet, or windy it might be!

Date:

Astronomy

Oct. 20, 2013 Rise Set
Actual Time 7:27 AM MDT 6:34 PM MDT
Civil Twilight 7:01 AM MDT 6:59 PM MDT
Nautical Twilight 6:31 AM MDT 7:29 PM MDT
Astronomical Twilight 6:02 AM MDT 7:59 PM MDT
Moon 7:49 PM MDT (10/20) 9:04 AM MDT (10/20)
Length of Visible Light 11h 58m
Length of Day
11h 06m
Full, 97% of the Moon is Illuminated
Oct 20
Full
Oct 26
Last Quarter
Nov 3
New
Nov 9
First Quarter
Nov 17
Full

Hourly Weather History & Observations

Time (MDT) Temp. Windchill Dew Point Humidity Pressure Visibility Wind Dir Wind Speed Gust Speed Precip Events Conditions
12:53 AM 28.0 °F - 14.0 °F 56% 30.05 in 10.0 mi Calm Calm - N/A   Clear
1:53 AM 25.0 °F - 14.0 °F 63% 30.04 in 10.0 mi Calm Calm - N/A   Clear
2:53 AM 21.9 °F - 12.9 °F 68% 30.05 in 10.0 mi Calm Calm - N/A   Clear
3:53 AM 21.0 °F - 12.0 °F 68% 30.04 in 10.0 mi Calm Calm - N/A   Clear
4:53 AM 21.0 °F - 12.0 °F 68% 30.04 in 10.0 mi Calm Calm - N/A   Clear
5:53 AM 21.0 °F - 12.0 °F 68% 30.04 in 10.0 mi Calm Calm - N/A   Clear
7:53 AM 19.0 °F - 12.0 °F 74% 30.09 in 10.0 mi Calm Calm - N/A   Clear
8:53 AM 30.0 °F - 15.1 °F 54% 30.08 in 10.0 mi Calm Calm - N/A   Clear
9:53 AM 41.0 °F - 16.0 °F 36% 30.07 in 10.0 mi Calm Calm - N/A   Clear
10:53 AM 51.1 °F - 15.1 °F 24% 29.99 in 10.0 mi Calm Calm - N/A   Clear
11:53 AM 60.1 °F - 12.0 °F 15% 29.95 in 10.0 mi West 6.9 mph - N/A   Clear
12:53 PM 62.1 °F - 10.0 °F 13% 29.93 in 10.0 mi West 10.4 mph 23.0 mph N/A   Clear
1:53 PM 64.0 °F - 9.0 °F 12% 29.91 in 10.0 mi West 12.7 mph 18.4 mph N/A   Clear
2:53 PM 64.0 °F - 8.1 °F 11% 29.90 in 10.0 mi West 15.0 mph 21.9 mph N/A   Clear
3:53 PM 64.0 °F - 6.1 °F 10% 29.89 in 10.0 mi NW 12.7 mph 20.7 mph N/A   Clear
4:53 PM 64.0 °F - 7.0 °F 11% 29.89 in 10.0 mi West 12.7 mph 19.6 mph N/A   Clear
5:53 PM 61.0 °F - 6.1 °F 11% 29.92 in 10.0 mi WNW 10.4 mph - N/A   Clear
6:53 PM 53.1 °F - 7.0 °F 16% 29.96 in 10.0 mi Calm Calm - N/A   Clear
7:53 PM 45.0 °F - 10.0 °F 24% 30.02 in 10.0 mi Calm Calm - N/A   Clear
8:53 PM 39.9 °F 37.8 °F 9.0 °F 28% 30.00 in 10.0 mi ESE 3.5 mph - N/A   Clear
9:53 PM 39.0 °F - 10.9 °F 32% 29.98 in 10.0 mi Calm Calm - N/A   Clear
10:53 PM 37.0 °F 34.5 °F 10.0 °F 33% 29.96 in 10.0 mi SSW 3.5 mph - N/A   Clear
11:53 PM 32.0 °F - 12.0 °F 44% 29.94 in 10.0 mi Calm Calm - N/A   Clear